User: anonymous
Location: Ostrava
(49.8330°N, 18.2830°E)
Time: 05:58:33
(UTC+02:00)
Language:

Cosmos 1263 Rocket - Orbit

View from above orbital plane
View from above orbital plane
View from above satellite
View from above satellite

Ground track
Ground track

The orbit data is extracted from the following two-line orbital elements,

1 12389U 81033B   14114.83832194  .00037221  00000-0  61317-3 0  9522
2 12389 082.8764 158.8588 0221266 305.2654 146.9272 15.29175219701570
Epoch (UTC): 24 April 2014 20:07:11
Eccentricity: 0.0221266
inclination: 82.8764°
perigee height: 326 km
apogee height: 630 km
right ascension of ascending node: 158.8588°
argument of perigee: 305.2654°
revolutions per day: 15.29175219
mean anomaly at epoch: 146.9272°
orbit number at epoch: 70157

The dashed part of the orbit path shows where the satellite is in the earth's shadow,  

DLR